Find Starlink 37516

NORAD ID: 68915 Int'l Des: 2026-097 Owner: SPXS Country: US Constellation: starlink operational
LEOCIRCULARRETROGRADE

現在のビュー

3D地球を読み込み中...

About Starlink 37516

Starlink 37516 (NORAD 68915) is a starlink constellation satellite (v2 mini) launched Apr 30, 2026 by SPXS of US. It operates in LEO, CIRCULAR, RETROGRADE orbit with a mass of 575.00 kg.

Starlink 37516について

説明を読み込み中...

次回通過

Passes for default location (London). Set your location on the main map for personalized predictions.

高度履歴

Loading altitude history...

軌道要素

1 68915U 26097W 26170.55931966 .00012429 00000-0 38665-3 0 9992
2 68915 97.2861 6.0987 0001571 89.5724 270.5699 15.33446532 7857
Epoch: Jun 19, 2026 • Age: 10 hours

現在のステータス

高度 474.5 km
速度 7.63 km/s
衛星直下点 58.41°N, 100.23°E
打ち上げ日 Apr 30, 2026
運用期間 0.1 years
タイプ internet

技術仕様

分類 Payload
質量 575.00 kg
乾燥質量 530.00 kg
総質量 575.00 kg
長さ 0.30 m
直径 4.10 m
スパン 29.00 m
形状 Box + pan
製造者 SPXS
バスタイプ Starlink V2MO
フェーズステータス In Orbit
所有者/国 SPXS/US

Most Searched